Regional Weather Roundup
Issued by NWS

Home | Current Version | Previous Version | Text Only | Print | Product List | Glossary On
Versions: 1 2 3 4 5 6 7 8 9 10 11 12 13 14 15 16 17 18 19 20 21 22 23 24 25 26 27 28 29 30 31 32 33 34 35 36 37 38 39 40 41 42 43 44 45 46 47 48 49 50
000
ASUS44 KMEG 162210
RWRTN
TENNESSEE HOURLY STATE WEATHER ROUNDUP
NATIONAL WEATHER SERVICE MEMPHIS TN
500 PM CDT MON OCT 16 2017

TNZ002-004-019-021-049-052-054-088>092-162300-
WEST TENNESSEE

CITY           SKY/WX    TMP DP  RH WIND       PRES   REMARKS
MEMPHIS INTL   SUNNY     66  37  34 NE12      30.28S
NWS MEMPHIS      N/A     65 N/A N/A MISG        N/A
JACKSON        SUNNY     66  42  41 N12       30.28S
COVINGTON      SUNNY     64  37  36 NE12      30.28F
UNION CITY     SUNNY     64  37  36 N10       30.28S
BOLIVAR        SUNNY     64  41  42 VRB5G12   30.26S
PARIS          SUNNY     63  39  42 NE12      30.28S
HUNTINGDON     SUNNY     63  41  45 N6G13     30.27S
LEXINGTON      SUNNY     63  41  45 VRB7G14   30.27R
SELMER         SUNNY     63  43  48 N8        30.26R
SAVANNAH       SUNNY     64  43  45 N8G15     30.25R
$$

TNZ008-025-027-028-033-062-065-066-162300-
NORTH MIDDLE TENNESSEE

CITY           SKY/WX    TMP DP  RH WIND       PRES   REMARKS
NASHVILLE      MOSUNNY   64  40  41 N15       30.26S
PORTLAND       SUNNY     63  41  45 N8        30.26S HAZE
CLARKSVILLE    SUNNY     63  38  39 N13       30.28F
SMYRNA         SUNNY     64  41  42 N14       30.27R
COOKEVILLE     SUNNY     61  41  48 NE7       30.24R
GALLATIN       SUNNY     63  41  45 N12       30.29S
CROSSVILLE     MOSUNNY   57  39  51 N8        30.25R
$$

TNZ061-075-076-078-094-096-097-162300-
SOUTH MIDDLE TENNESSEE

CITY           SKY/WX    TMP DP  RH WIND       PRES   REMARKS
FAYETTEVILLE   SUNNY     63  41  45 N15G21    30.21R
TULLAHOMA      SUNNY     61  37  41 NE9       30.24R
WINCHESTER     SUNNY     61  43  51 N9          N/A
COLUMBIA       SUNNY     64  39  39 NE10      30.23S
SHELBYVILLE    SUNNY     63  43  48 N13       30.24R
$$

TNZ017-018-042-046-047-162300-
NORTHEAST TENNESSEE

CITY           SKY/WX    TMP DP  RH WIND       PRES   REMARKS
TRI CITIES     PTCLDY    58  38  47 N8        30.22S
ELIZABETHTON   CLEAR     59  37  44 N3        30.22R
$$

TNZ012-013-036-069-073-074-162300-
CENTRAL EAST TENNESSEE

CITY           SKY/WX    TMP DP  RH WIND       PRES   REMARKS
KNOXVILLE      MOSUNNY   62  43  49 N10       30.20S
OAK RIDGE      SUNNY     63  41  44 VRB7      30.24R
DOWNTOWN KNOXV SUNNY     64  41  42 NE6       30.22R
GATLINBURG     SUNNY     61  41  48 NE6G12    30.21S
MORRISTOWN     SUNNY     61  39  44 NE7       30.22R
JACKSBORO      SUNNY     59  39  47 N8G14     30.27S
$$

TNZ083-085-099-162300-
SOUTHEAST TENNESSEE

CITY           SKY/WX    TMP DP  RH WIND       PRES   REMARKS
CHATTANOOGA    MOSUNNY   66  41  40 N14       30.18F
DAYTON         CLEAR     64  45  48 N14       30.19F
$$

SKY/WX REPORTED AS FAIR MEANS FEW OR NO CLOUDS BELOW
12 THOUSAND FEET.





USA.gov is the U.S. government's official web portal to all federal, state and local government web resources and services.